Location: Eaton Estates
(41.3089°N, 82.0057°W)
Time: 17:01:44
(UTC+00:00)

Cosmos 2056 Rocket - Pass Details

Date: 17 June 2021
Orbit: 741 x 801 km, 74.0° (Epoch: 01 August)

Event Time Altitude Azimuth Distance (km) Brightness Sun altitude
Rises 01:58:28 0° 211° (SSW) 3,188 6.6 -9.0°
Reaches altitude 10° 02:00:52 10° 216° (SW) 2,276 5.9 -9.3°
Maximum altitude 02:05:54 53° 293° (WNW) 942 4.4 -10.0°
Drops below altitude 10° 02:11:04 10° 10° (N) 2,329 6.5 -10.7°
Sets 02:13:32 0° 16° (NNE) 3,270 7.2 -11.1°
